Location: Medoc Mountain State Park
(36.2578°N, 77.8786°W)
Time: 17:39:12
(UTC-05:00)

Daily predictions for brighter satellites

Satellite Brightness Start Highest point End
(mag) Time Altitude Azimuth Time Altitude Azimuth Time Altitude Azimuth
Cosmos 1697 Rocket 4.2 17:21:30 10° SE 17:24:58 17° E 17:28:27 10° ENE
USA 161 3.7 17:24:36 10° NNW 17:27:07 27° WNW 17:29:42 10° SW
ISS -2.2 17:25:23 10° NNW 17:27:46 18° NNE 17:30:09 10° ENE
Cosmos 1743 3.2 17:24:36 10° N 17:28:16 39° E 17:31:55 10° SSE
DELTA 2 R/B (1) 3.7 17:26:09 10° W 17:31:43 70° N 17:37:18 10° ENE
Meteor 1-12 Rocket 4.2 17:30:22 10° N 17:36:05 79° E 17:41:51 10° SSE
Aureole 1 Rocket 4.3 17:31:50 10° NNW 17:38:05 87° ENE 17:45:59 10° SSE
PSLV R/B 3.1 17:37:53 10° WSW 17:41:03 70° NNW 17:43:43 13° ENE
Cosmos 1536 Rocket 3.8 17:43:48 10° SSE 17:47:59 48° E 17:52:11 10° NNE
Cosmos 2227 Rocket 2.6 17:43:15 10° N 17:48:34 40° ENE 17:53:49 10° SE
Landsat 4 4.1 17:45:12 10° NNE 17:48:52 44° E 17:52:31 10° S
IRS-1A Rocket 4.3 17:44:06 10° SSE 17:49:35 56° ENE 17:54:59 10° N
Atlas Centaur 2 2.8 17:46:26 10° WSW 17:51:35 41° S 17:55:42 10° ESE
Cosmos 2219 3.6 17:46:58 10° NNW 17:52:33 69° WSW 17:58:08 10° S
Cosmos 1271 Rocket 2.6 17:52:59 10° N 17:56:48 88° ENE 18:00:39 10° S
CORIOLIS 4.2 17:52:33 10° SSE 17:57:59 89° WSW 18:03:25 10° NNW
ATLAS 2AS CENTAUR R/B 3.6 17:51:00 10° SW 17:58:34 59° NW 18:06:36 10° NNE
Cosmos 1655 Rocket 4.3 17:52:29 10° N 17:58:51 75° W 18:05:13 10° S
ERS-2 2.9 17:56:17 10° SE 17:59:29 29° ENE 18:02:42 10° N
Meteor 2-9 Rocket 4.2 17:54:57 10° N 18:00:21 54° ENE 18:05:35 10° SSE
SKYMED 2 3.7 17:58:10 10° NNE 18:02:26 55° E 18:06:41 10° S
Cosmos 1484 Rocket 4.0 18:00:26 10° S 18:04:17 47° W 18:08:11 10° NNW
Cosmos 1980 Rocket 3.4 18:00:42 10° SSE 18:04:53 22° E 18:06:35 19° ENE
Centaur D AC-28 4.3 18:01:16 10° WSW 18:06:36 52° S 18:38:44 10° ESE
Centaur D AC-28 4.3 18:01:16 10° WSW 18:06:36 52° S 18:38:43 10° ESE
Centaur D AC-28 4.3 18:01:16 10° WSW 18:06:37 52° S 18:38:43 10° ESE
Centaur D AC-28 4.3 18:01:16 10° WSW 18:06:37 52° S 18:38:44 10° ESE
ATLAS 3B R/B 2.6 18:00:13 10° NNW 18:06:46 58° NE 18:13:09 10° SE
MTI 3.7 18:04:10 10° NNE 18:07:25 71° ESE 18:10:38 10° S
Cosmos 2266 Rocket 3.9 18:02:33 10° N 18:08:35 61° E 18:14:39 10° SSE
MONITOR-E 4.5 18:07:16 10° SE 18:10:08 40° ENE 18:13:01 10° N
USA 215 3.6 18:05:30 10° SE 18:12:00 67° SW 18:18:30 10° NW
Cosmos 2084 4.5 18:10:17 10° S 18:13:48 25° ESE 18:14:34 24° E
Cosmos 158 Rocket 3.8 18:09:25 10° NNW 18:14:27 65° ENE 18:19:21 10° SSE
Cosmos 2297 Rocket 2.2 18:10:03 10° NNW 18:15:38 57° ENE 18:21:10 10° SE
SPOT 3 Rocket 3.6 18:14:28 10° SSE 18:19:29 52° ENE 18:24:30 10° N
NOSS 3-4 (A) 3.6 18:13:58 10° S 18:19:57 53° ESE 18:23:50 22° NE
NOSS 3-4 (C) 3.6 18:14:04 10° S 18:20:03 52° ESE 18:23:53 23° NE
CZ-4 R/B 2.5 18:19:06 10° S 18:22:46 43° W 18:26:31 10° NNW
Cosmos 1666 4.1 18:19:35 10° NNW 18:23:06 39° W 18:26:35 10° SSW
Cosmos 1455 Rocket 4.2 18:24:00 10° NNW 18:28:13 44° W 18:32:22 10° SSW
Meteor 2-4 Rocket 4.0 18:22:50 10° SSW 18:28:17 65° W 18:33:38 10° N
Cosmos 1656 3.7 18:23:31 10° SSW 18:29:07 81° WNW 18:33:56 14° NNE
YAOGAN 1 3.3 18:28:48 10° S 18:33:01 54° W 18:37:16 10° NNW
Thor Agena Rocket 4.1 18:35:10 34° E 18:35:31 34° E 18:40:17 10° SSE
ALOS 2.1 18:33:16 10° SSE 18:37:55 82° ENE 18:42:36 10° N
Okean 2 3.2 18:37:17 10° S 18:41:21 71° E 18:42:23 48° NNE
Delta 2 Rocket 4.1 18:37:19 10° W 18:42:46 64° SSW 18:44:52 34° SE
Cosmos 2369 4.4 18:38:37 10° SW 18:44:06 52° WNW 18:49:14 12° N
Cosmos 2278 4.4 18:39:58 10° SW 18:45:30 53° WNW 18:50:28 13° N
Cosmos 2360 4.5 18:40:44 10° S 18:46:09 46° ESE 18:46:58 43° E
Meteor 1-15 Rocket 4.2 18:40:26 10° N 18:46:23 81° E 18:52:16 10° S
Hubble Space Telescope 2.7 18:44:57 10° WSW 18:48:14 23° S 18:49:44 19° SSE
CENTAUR R/B 3.9 18:42:19 10° NNW 18:48:45 27° NE 18:48:45 27° NE
Cosmos 1269 Rocket 3.9 18:44:31 10° NNW 18:49:51 85° ENE 18:55:08 10° SSE
COSMO-SKYMED 1 3.9 18:46:22 10° N 18:50:24 39° WNW 18:54:25 10° SW
Cosmos 1553 Rocket 4.1 18:52:28 10° SSE 18:58:37 52° E 18:59:34 48° ENE
FENGYUN 3A 3.9 18:53:52 10° S 18:59:12 67° WSW 19:04:34 10° NNW
SJ 16-02 3.2 18:56:39 10° SW 19:00:27 29° WNW 19:03:46 13° N
Cosmos 1417 Rocket 4.4 18:55:23 10° S 19:01:24 64° E 19:03:20 43° NNE
NOAA 12 4.5 18:56:59 10° S 19:02:12 63° WSW 19:07:26 10° NNW
ISS -2.1 19:01:16 10° WNW 19:03:20 33° W 19:03:20 33° W
SL-24 R/B - RUBIN 2 4.2 19:01:44 10° SSW 19:08:06 87° ESE 19:09:20 59° NE
Cosmos 1697 Rocket 3.2 19:02:50 10° SW 19:08:23 57° WNW 19:11:14 28° N
Okean 1-7 Rocket 3.6 19:04:28 10° SSW 19:08:49 74° W 19:08:50 74° W
USA 238 DEB 4.5 19:02:31 10° NW 19:09:26 54° WSW 19:16:23 10° S
USA 238 4.4 19:02:37 10° NW 19:09:32 55° WSW 19:16:30 10° S
FengYun 1-2 T 4.1 19:11:04 10° SSE 19:16:40 88° ENE 19:22:20 10° NNW
DELTA 2 R/B (1) 3.7 19:12:58 10° WNW 19:18:10 64° NNW 19:18:10 64° NNW
Cosmos 2227 Rocket 4.3 19:27:49 10° NW 19:32:19 25° WSW 19:36:47 10° SSW
Atlas Centaur 2 3.8 19:36:28 10° WSW 19:38:54 19° SW 19:38:54 19° SW
NOSS 3-2 (A) 4.4 19:32:10 10° NW 19:39:47 64° WSW 19:47:57 10° SSE
NOSS 3-2 (C) 4.1 19:38:27 10° NW 19:46:11 75° WSW 19:48:55 46° S
Cosmos 1980 Rocket 3.1 19:43:05 10° SW 19:48:26 45° WNW 19:48:26 45° WNW
BREEZE-M DEB (TANK) 4.5 19:41:33 10° WNW 19:51:23 52° WNW 19:51:23 52° WNW
Cosmos 2344 4.2 19:54:01 10° SSW 19:59:02 44° S 19:59:02 44° S
CENTAUR R/B 4.4 20:32:17 10° NW 20:35:59 31° NW 20:35:59 31° NW
